Observations for Trim Market St
| Time | AQI | Temp °C | Hum % | Pres Pa | CO μg/m³ | H₂S μg/m³ | NO μg/m³ | NO₂ μg/m³ | O₃ μg/m³ | SO₂ μg/m³ | PM1 μg/m³ | PM2.5 μg/m³ | PM10 μg/m³ |
|---|---|---|---|---|---|---|---|---|---|---|---|---|---|
| Wednesday 26 August 2026 | |||||||||||||
| 09:14 | 2 | 17.5 | 84 | 2,147,483,647 | 0.36 | 0 | 1.96 | 21.35 | 32.61 | 0 | 5.7 | 7.07 | 12.44 |
| 09:10 | 2 | 17.5 | 84 | 2,147,483,647 | 0.28 | 0 | 3.42 | 18.83 | 39.54 | 0 | 6.41 | 7.05 | 10.8 |
| 09:09 | 2 | 17.5 | 84 | 2,147,483,647 | 0.28 | 0 | 3.42 | 21.16 | 33.47 | 0 | 5.7 | 7.07 | 10.8 |
| 09:08 | 2 | 17.5 | 84 | 2,147,483,647 | 0.29 | 0 | 3.36 | 27.5 | 29.88 | 0 | 6.41 | 6.6 | 11.35 |
| 09:07 | 2 | 17.4 | 84 | 2,147,483,647 | 0.32 | 0 | 3.27 | 44.5 | 15.05 | 0 | 4.99 | 5.67 | 10.26 |
| 09:05 | 2 | 17.4 | 84 | 2,147,483,647 | 0.3 | 0 | 1.44 | 21.55 | 34.68 | 0 | 7.13 | 9.4 | 14.07 |
| 09:04 | 2 | 17.4 | 84 | 2,147,483,647 | 0.29 | 0 | 1.51 | 20.69 | 34.7 | 0 | 5.7 | 6.13 | 11.89 |
| 09:03 | 2 | 17.4 | 84 | 2,147,483,647 | 0.3 | 0 | 1.42 | 20.19 | 36.46 | 0 | 5.7 | 7.53 | 11.35 |
| 09:01 | 2 | 17.4 | 84 | 2,147,483,647 | 0.32 | 0 | 1.1 | 25.5 | 36.5 | 0 | 5.7 | 6.6 | 11.34 |
| 09:00 | 2 | 17.4 | 84 | 2,147,483,647 | 0.31 | 0 | 1.04 | 21.35 | 30.44 | 0 | 6.41 | 7.05 | 10.8 |
| 08:58 | 2 | 17.4 | 84 | 2,147,483,647 | 0.34 | 0 | 1.02 | 26.31 | 34.64 | 0 | 5.7 | 6.6 | 10.25 |
| 08:54 | 2 | 17.3 | 84 | 2,147,483,647 | 0.27 | 0 | 1.22 | 17.6 | 36.95 | 0 | 5.7 | 7.06 | 11.34 |
| 08:53 | 2 | 17.3 | 84 | 2,147,483,647 | 0.28 | 0 | 1.05 | 22.91 | 38.58 | 0 | 5.7 | 7.06 | 11.34 |
| 08:52 | 2 | 17.3 | 84 | 2,147,483,647 | 0.29 | 0 | 1.27 | 21.52 | 34.34 | 0 | 6.41 | 7.05 | 9.71 |
| 08:50 | 2 | 17.2 | 84 | 2,147,483,647 | 0.27 | 0 | 1.25 | 16.39 | 41.42 | 0 | 5.7 | 6.59 | 11.88 |
| 08:39 | 2 | 17.1 | 84 | 2,147,483,647 | 0.25 | 0 | 1.45 | 17.3 | 39.99 | 0 | 7.13 | 7.5 | 11.32 |
| 08:38 | 2 | 17.1 | 84 | 2,147,483,647 | 0.24 | 0 | 1.45 | 15.98 | 43.01 | 0 | 3.56 | 4.71 | 8.07 |
| 08:37 | 2 | 17.1 | 84 | 2,147,483,647 | 0.25 | 0 | 1.52 | 15.99 | 40.46 | 0 | 6.41 | 6.57 | 10.78 |
| 08:36 | 2 | 17 | 84 | 2,147,483,647 | 0.24 | 0 | 1.64 | 15.23 | 39.25 | 0 | 5.7 | 6.1 | 10.24 |
| 08:35 | 2 | 17 | 84 | 2,147,483,647 | 0.24 | 0 | 1.88 | 18.87 | 41.75 | 0 | 4.28 | 5.17 | 8.61 |